Location: Mountain Grove
(34.0887°N, 86.6172°W)
Time: 00:20:35
(UTC+00:00)

CBERS-1 - Pass Details

Date: 14 July 2020
Orbit: 770 x 777 km, 98.6° (Epoch: 12 August)

Event Time Altitude Azimuth Distance (km) Brightness Sun altitude
Rises 07:36:49 0° 17° (NNE) 3,260 8.4 -29.0°
Reaches altitude 10° 07:39:11 10° 22° (NNE) 2,328 7.4 -28.8°
Enters shadow 07:44:10 57° 97° (E) 905 4.3 -28.3°
